Dewpoint
69 69 70 69 70 71 71 70 70 71 70 69 67 65 64 63 59 58 60 60 67 67 66 66 68 68 68 68 66 66 67 67 67
67 67 67 68 69 70 70 69 70 70 70 69 68 68 65 59 57 57 59 63 65 66 65 65 67 68 68 68 67 66 66 67 67
62 64 66 67 68 69 69 70 70 70 71 70 69 66 63 59 58 58 59 64 64 64 66 65 66 67 68 68 68 66 65 66 67
57 59 62 65 66 68 68 69 70 70 71 70 68 66 64 59 59 59 60 64 62 65 66 65 66 67 68 68 68 68 67 66 67
50 52 57 61 63 65 67 68 69 69 70 69 68 66 64 60 60 60 60 65 63 67 66 66 66 67 67 67 66 66 67 67 66
41 47 51 54 57 60 63 65 67 68 67 68 67 65 62 60 61 61 65 64 63 67 67 66 66 67 67 67 67 66 67 67 67
38 40 45 48 50 53 57 60 61 64 66 65 65 63 60 59 60 61 66 64 64 66 67 66 66 66 67 66 66 67 67 67 67
35 37 39 41 45 45 47 51 54 56 62 64 63 62 60 59 60 62 66 65 64 65 67 67 67 66 67 66 66 66 66 67 67
34 35 36 36 38 38 41 45 47 51 57 60 63 62 61 59 59 61 64 67 63 64 66 67 67 67 66 65 65 65 66 66 66
32 34 35 34 35 36 39 42 42 48 51 56 60 63 61 60 59 60 62 65 66 65 66 67 67 67 67 65 64 65 65 65 66
31 32 33 32 34 36 37 41 41 41 47 50 54 59 61 60 58 60 61 63 65 67 67 67 67 67 67 66 65 63 64 65 65
30 31 31 32 34 35 36 38 43 44 43 44 46 52 58 59 58 60 60 61 63 66 67 67 67 67 66 66 65 63 63 65 65
29 30 31 33 35 35 36 38 39 43 44 44 45 48 51 56 58 59 60 59 61 63 66 67 67 67 66 66 65 64 63 64 64
29 30 31 33 34 35 36 36 40 42 44 43 43 46 50 52 57 59 59 59 60 61 63 65 65 66 66 65 65 64 63 63 63
28 30 28 31 31 31 32 32 34 36 39 35 35 42 46 51 55 58 59 59 58 59 61 63 64 63 65 66 65 64 64 63 62
26 27 28 29 30 30 30 32 33 34 38 42 46 51 53 54 58 59 58 58 58 58 59 61 60 62 64 65 65 66 65 63 62
24 26 27 28 29 29 30 31 32 34 36 36 41 44 53 59 60 60 58 58 58 57 57 59 58 59 61 61 63 65 65 64 63
27 26 27 27 28 29 29 30 31 32 34 35 37 39 45 40 56 60 58 58 58 57 57 57 58 57 59 59 60 62 64 64 63
26 27 27 27 28 28 29 28 31 32 31 33 34 37 38 35 38 45 52 57 57 57 57 56 56 57 57 57 57 58 62 65 64
25 27 26 26 28 28 28 29 29 31 31 32 32 33 34 37 38 37 42 41 48 55 57 56 55 56 56 57 57 58 61 65 64
Lifted_Index
-0 -1 -1 -1 -1 -2 -2 -2 -1 -1 -1 -1 0 2 4 5 6 6 5 4 3 3 3 2 1 1 1 1 1 2 1 1 0
0 -0 -0 -1 -1 -2 -2 -2 -2 -1 -1 -1 0 2 4 5 5 6 5 4 3 3 3 3 2 1 1 1 1 2 1 1 1
0 0 0 0 -0 -1 -2 -2 -2 -2 -2 -1 -0 2 3 5 5 5 5 4 3 3 3 3 2 1 1 1 1 1 2 1 1
0 0 1 1 0 -1 -1 -2 -2 -2 -2 -1 -0 1 3 4 5 5 5 4 3 3 3 3 2 2 1 1 1 1 1 1 1
-0 0 1 1 1 0 -1 -1 -2 -2 -2 -1 -0 1 2 3 4 5 4 4 3 2 2 2 2 2 1 1 1 1 1 1 1
-0 -0 0 1 1 1 -0 -1 -1 -1 -1 -1 -0 1 2 3 4 4 4 3 3 2 2 2 2 2 2 2 2 2 1 1 1
-0 -0 -0 0 0 0 -0 -1 -1 -1 -1 -1 -1 0 2 3 3 3 3 3 3 2 1 2 2 2 2 2 2 2 2 1 1
-0 -0 -0 -0 -0 0 -0 -0 -1 -1 -1 -1 -1 0 1 3 3 3 2 2 2 2 1 1 2 2 2 3 3 3 2 2 1
2 1 -0 -1 -0 -0 -0 0 0 -0 -1 -1 -1 -0 1 2 3 3 2 2 2 2 1 1 1 2 2 3 3 3 3 2 2
6 5 2 1 -0 -0 -0 0 1 0 -0 -0 -1 -1 0 1 2 3 3 2 2 1 1 1 1 1 2 3 3 4 3 3 2
12 10 7 4 2 1 0 0 0 1 0 -0 -0 -1 -1 0 1 2 3 2 2 1 0 0 1 1 2 3 3 4 4 3 3
15 14 13 10 7 4 2 1 0 0 0 -0 -1 -1 -1 -1 0 1 2 2 2 1 1 0 1 1 2 2 3 4 4 4 3
17 16 16 15 13 10 7 4 2 1 0 -0 -1 -1 -1 -1 -1 -0 1 2 2 2 1 1 0 1 1 2 3 4 4 4 4
18 18 17 17 16 14 12 9 6 3 2 1 -0 -1 -1 -1 -1 -1 0 1 2 2 2 1 1 1 1 2 3 4 4 5 5
19 19 18 18 17 16 15 13 11 8 5 3 1 0 -0 -1 -1 -1 -1 0 1 2 2 2 1 1 1 2 2 3 4 5 5
20 19 19 18 17 17 16 15 13 12 10 7 5 2 1 0 -0 -1 -1 -0 0 1 2 2 2 2 2 2 2 2 3 4 5
21 20 20 19 18 17 17 16 14 13 13 11 8 5 3 2 1 0 -0 -0 -0 0 1 2 2 3 3 3 3 2 2 3 4
21 21 20 19 19 18 18 17 15 14 14 14 12 9 6 4 2 1 0 -0 -0 -0 0 1 2 3 3 4 4 4 3 3 4
22 22 21 20 19 18 18 18 17 16 15 15 14 13 11 7 5 2 1 0 0 -0 0 1 1 2 3 4 5 5 3 3 3
22 22 21 20 19 19 18 18 18 17 16 16 16 15 14 11 7 4 2 1 1 0 0 0 1 1 2 3 5 5 4 3 2